KO4LFZ Weather Reports


time (UTC)temp
F
wind
direction
speed
knots
gust
knots
rain 1hr
in
rain 24hr
in
rain mn
in
humidity
%
barometer
mb
20260906123039 76 226 0.0 0.0 0.00 0.00 0.00 99 1013.6
20260906122533 75 226 0.0 0.0 0.00 0.00 0.00 99 1013.5
20260906122030 75 230 0.0 0.0 0.00 0.00 0.00 99 1013.4
20260906121525 74 231 0.0 0.0 0.00 0.00 0.00 99 1013.0
20260906121021 74 236 0.0 0.0 0.00 0.00 0.00 99 1013.3
20260906120516 74 270 0.0 0.0 0.00 0.00 0.00 99 1013.2
20260906120014 73 234 0.0 0.0 0.00 0.00 0.00 99 1013.1
20260906115508 73 233 0.0 0.0 0.00 0.00 0.00 99 1013.3
20260906115002 73 229 0.0 0.0 0.00 0.00 0.00 99 1013.1
20260906114456 73 227 0.0 0.0 0.00 0.00 0.00 99 1013.0
20260906113953 73 226 0.0 0.0 0.00 0.00 0.00 99 1012.8
20260906113451 73 229 0.0 0.0 0.00 0.00 0.00 99 1012.7
20260906112947 73 226 0.0 0.0 0.00 0.00 0.00 99 1012.6
20260906112442 73 226 0.0 0.0 0.00 0.00 0.00 99 1012.7
20260906111938 73 228 0.0 0.0 0.00 0.00 0.00 99 1012.4
20260906111437 73 225 0.0 0.0 0.00 0.00 0.00 99 1012.7
20260906110932 74 224 0.0 0.0 0.00 0.00 0.00 99 1012.3
20260906110428 74 224 0.0 0.0 0.00 0.00 0.00 99 1012.3
20260906105926 74 226 0.0 0.0 0.00 0.00 0.00 99 1012.2
20260906105422 74 221 0.0 0.0 0.00 0.00 0.00 99 1012.5
20260906104918 73 224 0.0 0.0 0.00 0.00 0.00 99 1012.6
20260906104416 73 245 0.0 0.0 0.00 0.00 0.00 99 1012.5
20260906103910 74 221 0.0 0.0 0.00 0.00 0.00 99 1012.3
20260906103409 74 207 0.0 0.0 0.00 0.00 0.00 99 1012.2
20260906102904 74 222 0.0 0.0 0.00 0.00 0.00 99 1012.3
20260906102403 74 227 0.0 0.0 0.00 0.00 0.00 99 1012.0
20260906101859 74 225 0.0 0.0 0.00 0.00 0.00 99 1012.0
20260906101353 73 229 0.0 0.0 0.00 0.00 0.00 99 1011.9
20260906100849 74 231 0.0 0.0 0.00 0.00 0.00 99 1011.7
20260906100348 74 229 0.0 0.0 0.00 0.00 0.00 99 1011.9
20260906095843 75 230 0.0 0.0 0.00 0.00 0.00 99 1011.8
20260906095339 75 225 0.0 0.0 0.00 0.00 0.00 99 1011.9
20260906094837 75 230 0.0 0.0 0.00 0.00 0.00 99 1011.9
20260906094332 75 228 0.0 0.0 0.00 0.00 0.00 99 1011.8
20260906093829 75 222 0.0 0.0 0.00 0.00 0.00 99 1011.7
20260906093325 75 223 0.0 0.0 0.00 0.00 0.00 99 1011.8
20260906092819 75 225 0.0 0.0 0.00 0.00 0.00 99 1011.8
20260906092314 75 230 0.0 0.0 0.00 0.00 0.00 99 1011.6
20260906091810 75 226 0.0 0.0 0.00 0.00 0.00 99 1011.7
20260906091306 75 226 0.0 0.0 0.00 0.00 0.00 99 1011.8
20260906090802 75 225 0.0 0.0 0.00 0.00 0.00 99 1011.8
20260906090301 75 223 0.0 0.0 0.00 0.00 0.00 99 1011.8
20260906085800 75 229 0.0 0.0 0.00 0.00 0.00 99 1011.9
20260906085259 74 224 0.0 0.0 0.00 0.00 0.00 99 1011.7
20260906084754 74 217 0.0 0.0 0.00 0.00 0.00 99 1012.0
20260906084254 74 263 0.0 0.0 0.00 0.00 0.00 99 1012.0
20260906083744 74 233 0.0 0.0 0.00 0.00 0.00 99 1011.9
20260906083239 75 252 0.0 0.0 0.00 0.00 0.00 99 1012.0
20260906082734 75 236 0.0 0.0 0.00 0.00 0.00 99 1011.7
20260906082229 75 230 0.0 0.0 0.00 0.00 0.00 99 1011.9
20260906081725 75 229 0.0 0.0 0.00 0.00 0.00 99 1011.7
20260906081225 76 228 0.0 0.0 0.00 0.00 0.00 99 1011.8
20260906080721 76 227 0.0 0.0 0.00 0.00 0.00 99 1011.7
20260906080218 76 248 0.0 0.0 0.00 0.00 0.00 99 1012.0
20260906075712 76 221 0.0 0.0 0.00 0.00 0.00 99 1011.8
20260906075207 75 216 0.0 0.0 0.00 0.00 0.00 99 1011.9
20260906074702 75 224 0.0 0.0 0.00 0.00 0.00 99 1011.7
20260906074201 76 226 0.0 0.0 0.00 0.00 0.00 99 1011.7
20260906073656 75 218 0.0 0.0 0.00 0.00 0.00 99 1011.7
20260906073151 76 207 0.0 0.0 0.00 0.00 0.00 99 1011.5
20260906072647 76 208 0.0 0.0 0.00 0.00 0.00 99 1011.8
20260906072142 76 227 0.0 0.0 0.00 0.00 0.00 99 1011.7
20260906071638 76 217 0.0 0.0 0.00 0.00 0.00 99 1011.5
20260906071133 76 221 0.0 0.0 0.00 0.00 0.00 99 1011.7
20260906070629 76 227 0.0 0.0 0.00 0.00 0.00 99 1011.6
20260906070125 76 205 0.0 0.0 0.00 0.00 0.00 99 1011.7
20260906065624 76 227 0.0 0.0 0.00 0.00 0.00 99 1011.7
20260906065120 76 225 0.0 0.0 0.00 0.00 0.00 99 1011.8
20260906064615 76 226 0.0 0.0 0.00 0.00 0.00 99 1011.8
20260906063605 76 226 0.0 0.0 0.00 0.00 0.00 99 1011.8
20260906063101 76 228 0.0 0.0 0.00 0.00 0.00 98 1011.7
20260906062557 77 229 0.0 0.0 0.00 0.00 0.00 99 1011.6
20260906062055 77 218 0.0 0.0 0.00 0.00 0.00 99 1011.9
20260906061552 77 220 0.0 0.0 0.00 0.00 0.00 99 1012.0
20260906061051 77 223 0.0 0.0 0.00 0.00 0.00 99 1011.9
20260906060548 76 229 0.0 0.0 0.00 0.00 0.00 98 1012.2
20260906060045 77 243 0.0 0.0 0.00 0.00 0.00 98 1012.1
20260906055541 77 226 0.0 0.0 0.00 0.00 0.00 98 1012.1
20260906055035 77 227 0.0 0.0 0.00 0.00 0.00 98 1012.1
20260906054530 77 217 0.0 0.0 0.00 0.00 0.00 98 1012.0
20260906054025 77 221 0.0 0.0 0.00 0.00 0.00 98 1012.2
20260906053521 77 221 0.0 0.0 0.00 0.00 0.00 98 1012.2
20260906053017 77 221 0.0 0.0 0.00 0.00 0.00 98 1012.2
20260906052512 77 229 0.0 0.0 0.00 0.00 0.00 98 1012.4
20260906052009 77 229 0.0 0.0 0.00 0.00 0.00 97 1011.8
20260906051505 77 229 0.0 0.0 0.00 0.00 0.00 97 1012.2
20260906051000 77 235 0.0 0.0 0.00 0.00 0.00 96 1012.4
20260906050500 77 228 0.0 0.0 0.00 0.00 0.00 96 1012.2
20260906045954 78 228 0.0 0.0 0.00 0.00 0.00 96 1012.3
20260906045453 78 229 0.0 0.0 0.00 0.00 0.00 96 1012.2
20260906044949 78 227 0.0 0.0 0.00 0.00 0.00 95 1012.3
20260906044444 78 230 0.0 0.0 0.00 0.00 0.00 95 1012.2
20260906043940 78 210 0.0 0.0 0.00 0.00 0.00 96 1012.3
20260906043435 78 216 0.0 0.0 0.00 0.00 0.00 97 1012.2
20260906042931 78 170 0.0 0.0 0.00 0.00 0.00 96 1012.2
20260906042429 78 215 0.0 0.0 0.00 0.00 0.00 95 1012.2
20260906041919 78 199 0.0 0.0 0.00 0.00 0.00 95 1012.2
20260906041415 79 176 0.0 0.0 0.00 0.00 0.00 95 1012.2
20260906040915 79 221 0.0 0.0 0.00 0.00 0.00 94 1012.1
20260906040410 79 216 0.0 0.0 0.00 0.00 0.00 94 1012.1
20260906035905 79 227 0.0 0.0 0.00 0.00 0.00 93 1011.8
20260906035401 79 225 0.0 0.0 0.00 0.00 0.00 93 1012.0
20260906034855 79 220 0.0 0.0 0.00 0.00 0.00 93 1012.1
20260906034350 79 227 0.0 0.0 0.00 0.00 0.00 93 1011.9
20260906033846 79 219 0.0 0.0 0.00 0.00 0.00 93 1011.8
20260906033345 79 214 0.0 0.0 0.00 0.00 0.00 92 1011.8
20260906032842 79 224 0.0 0.0 0.00 0.00 0.00 92 1011.8
20260906032337 79 224 0.0 0.0 0.00 0.00 0.00 92 1011.9
20260906031832 80 226 0.0 0.0 0.00 0.00 0.00 91 1011.8
20260906031328 80 225 0.0 0.0 0.00 0.00 0.00 91 1011.9
20260906030827 80 227 0.0 0.0 0.00 0.00 0.00 91 1011.9
20260906030323 80 226 0.0 0.0 0.00 0.00 0.00 91 1011.9
20260906025817 80 228 0.0 0.0 0.00 0.00 0.00 92 1011.7
20260906025311 80 225 0.0 0.0 0.00 0.00 0.00 91 1011.5
20260906024810 80 224 0.0 0.0 0.00 0.00 0.00 90 1011.9
20260906024310 80 232 0.0 0.0 0.00 0.00 0.00 88 1011.8
20260906023805 81 230 0.0 0.0 0.00 0.00 0.00 86 1011.6
20260906023301 81 228 0.0 0.0 0.00 0.00 0.00 86 1011.7
20260906022756 82 225 0.0 0.0 0.00 0.00 0.00 86 1011.4
20260906022251 82 219 0.0 0.0 0.00 0.00 0.00 86 1011.6
20260906021747 82 221 0.0 0.0 0.00 0.00 0.00 87 1011.4
20260906021246 81 228 0.0 0.0 0.00 0.00 0.00 87 1011.5
20260906020740 82 225 0.0 0.0 0.00 0.00 0.00 87 1011.4
20260906020235 82 226 0.0 0.0 0.00 0.00 0.00 87 1011.3
20260906015730 82 224 0.0 0.0 0.00 0.00 0.00 86 1011.1
20260906015228 83 227 0.0 0.0 0.00 0.00 0.00 84 1011.2
20260906014723 83 209 0.0 0.0 0.00 0.00 0.00 84 1011.2
20260906014219 83 217 0.0 0.0 0.00 0.00 0.00 85 1011.1
20260906013715 83 213 0.0 0.0 0.00 0.00 0.00 85 1010.9
20260906013214 83 210 0.0 0.0 0.00 0.00 0.00 86 1011.1
20260906012709 84 236 0.0 0.0 0.00 0.00 0.00 84 1011.2
20260906012204 84 207 0.0 0.0 0.00 0.00 0.00 78 1011.0
20260906011700 84 220 0.0 0.0 0.00 0.00 0.00 77 1011.2
20260906011154 85 225 0.0 0.0 0.00 0.00 0.00 78 1010.7
20260906010649 85 222 0.0 0.0 0.00 0.00 0.00 78 1010.8
20260906010146 85 201 0.0 0.0 0.00 0.00 0.00 81 1010.7
20260906005645 86 226 0.0 0.0 0.00 0.00 0.00 80 1010.9
20260906005144 87 231 0.0 0.0 0.00 0.00 0.00 76 1010.8
20260906004643 87 215 0.0 0.0 0.00 0.00 0.00 74 1010.7
20260906004139 87 213 0.0 0.0 0.00 0.00 0.00 74 1010.7
20260906003634 87 219 0.0 0.0 0.00 0.00 0.00 76 1010.5
20260906003130 88 227 0.0 0.0 0.00 0.00 0.00 76 1010.6
20260906002625 89 215 0.0 0.0 0.00 0.00 0.00 73 1010.9
20260906002119 91 231 0.0 0.0 0.00 0.00 0.00 73 1010.8
20260906001614 92 225 0.0 0.0 0.00 0.00 0.00 69 1010.6
20260906001109 92 213 0.0 0.0 0.00 0.00 0.00 64 1010.7
20260906000605 93 206 0.0 0.0 0.00 0.00 0.00 64 1011.0
20260906000100 93 212 0.0 0.0 0.00 0.00 0.00 61 1010.9
20260905235559 93 230 0.0 0.0 0.00 0.00 0.00 62 1011.0
20260905235054 93 193 0.0 0.0 0.00 0.00 0.00 63 1011.1
20260905234550 94 238 0.0 0.0 0.00 0.00 0.00 64 1011.2
20260905234044 95 241 0.0 0.0 0.00 0.00 0.00 63 1011.1
20260905233539 96 234 0.0 0.0 0.00 0.00 0.00 60 1011.2
20260905233039 96 242 0.0 0.0 0.00 0.00 0.00 61 1011.1
20260905232534 95 239 0.0 0.0 0.00 0.00 0.00 63 1011.2
20260905232030 95 248 0.0 0.0 0.00 0.00 0.00 62 1011.1
20260905231525 93 235 0.0 0.0 0.00 0.00 0.00 64 1011.0
20260905231021 93 241 0.0 0.0 0.00 0.00 0.00 63 1010.9
20260905230520 93 239 0.0 0.0 0.00 0.00 0.00 63 1010.8
20260905230019 93 247 0.0 0.0 0.00 0.00 0.00 62 1011.0
20260905225514 93 258 0.0 0.0 0.00 0.00 0.00 61 1011.1
20260905225009 93 278 0.0 0.0 0.00 0.00 0.00 61 1011.0
20260905224504 94 262 0.0 0.0 0.00 0.00 0.00 60 1011.0
20260905224003 95 274 0.0 0.0 0.00 0.00 0.00 59 1010.9
20260905223501 97 334 0.0 0.0 0.00 0.00 0.00 55 1010.8
20260905222956 98 294 0.0 0.0 0.00 0.00 0.00 52 1010.8
20260905222456 98 278 0.0 0.0 0.00 0.00 0.00 51 1010.9
20260905221951 99 293 0.0 0.0 0.00 0.00 0.00 54 1011.0
20260905221448 99 322 0.0 0.0 0.00 0.00 0.00 53 1010.8
20260905220944 99 329 0.0 0.0 0.00 0.00 0.00 51 1011.0
20260905220439 100 265 0.0 0.0 0.00 0.00 0.00 49 1011.1
20260905215938 101 241 0.0 0.0 0.00 0.00 0.00 50 1010.9
20260905215434 103 262 0.0 0.0 0.00 0.00 0.00 47 1011.2
20260905214930 103 232 0.0 0.0 0.00 0.00 0.00 42 1011.0
20260905214426 101 231 0.0 0.0 0.00 0.00 0.00 46 1011.0
20260905213920 100 170 0.0 0.0 0.00 0.00 0.00 49 1011.0
20260905213416 100 316 0.0 0.0 0.00 0.00 0.00 47 1011.0
20260905212911 100 123 0.0 0.0 0.00 0.00 0.00 46 1011.1
20260905212406 102 12 0.0 0.0 0.00 0.00 0.00 47 1011.2
20260905211900 103 250 0.0 0.0 0.00 0.00 0.00 42 1011.2
20260905211355 101 221 0.0 0.0 0.00 0.00 0.00 45 1011.2
20260905210852 100 17 0.0 0.0 0.00 0.00 0.00 47 1011.3
20260905210351 100 13 0.0 0.0 0.00 0.00 0.00 47 1011.3
20260905205850 101 336 0.0 0.0 0.00 0.00 0.00 48 1011.4
20260905205345 100 246 0.0 0.0 0.00 0.00 0.00 47 1011.4
20260905204844 100 70 0.0 0.0 0.00 0.00 0.00 46 1011.4
20260905204341 100 275 0.0 0.0 0.00 0.00 0.00 48 1011.5
20260905203839 98 67 0.0 0.0 0.00 0.00 0.00 48 1011.5
20260905203335 98 79 0.0 0.0 0.00 0.00 0.00 51 1011.6
20260905202831 102 351 0.0 0.0 0.00 0.00 0.00 48 1011.5
20260905202326 104 202 0.0 0.0 0.00 0.00 0.00 45 1011.5
20260905201822 103 231 0.0 0.0 0.00 0.00 0.00 46 1011.8
20260905201317 102 260 0.0 0.0 0.00 0.00 0.00 47 1012.0
20260905200816 101 232 0.0 0.0 0.00 0.00 0.00 47 1012.0
20260905200313 101 262 0.0 0.0 0.00 0.00 0.00 47 1011.9
20260905195810 100 225 0.0 0.0 0.00 0.00 0.00 48 1012.2
20260905195307 100 259 0.0 0.0 0.00 0.00 0.00 48 1012.2
20260905194802 100 44 0.0 0.0 0.00 0.00 0.00 51 1012.1
20260905194300 100 349 0.0 0.0 0.00 0.00 0.00 51 1012.6
20260905193754 100 230 0.0 0.0 0.00 0.00 0.00 48 1012.4
20260905193249 100 30 0.0 0.0 0.00 0.00 0.00 49 1012.5
20260905192739 100 95 0.0 0.0 0.00 0.00 0.00 48 1012.6
20260905192236 101 248 0.0 0.0 0.00 0.00 0.00 46 1012.7
20260905191735 100 224 0.0 0.0 0.00 0.00 0.00 49 1012.8
20260905191233 99 261 0.0 0.0 0.00 0.00 0.00 49 1012.8
20260905190732 98 236 0.0 0.0 0.00 0.00 0.00 52 1012.8
20260905190231 99 237 0.0 0.0 0.00 0.00 0.00 51 1012.8
20260905185730 99 239 0.0 0.0 0.00 0.00 0.00 49 1013.1
20260905185225 98 331 0.0 0.0 0.00 0.00 0.00 52 1013.1
20260905184719 99 10 0.0 0.0 0.00 0.00 0.00 51 1013.2
20260905184218 100 1 0.0 0.0 0.00 0.00 0.00 50 1013.2
20260905183718 98 234 0.0 0.0 0.00 0.00 0.00 51 1013.1
20260905183214 97 27 0.0 0.0 0.00 0.00 0.00 56 1013.2
20260905182712 97 267 0.0 0.0 0.00 0.00 0.00 54 1013.2
20260905182207 98 343 0.0 0.0 0.00 0.00 0.00 54 1013.5
20260905181703 97 294 0.0 0.0 0.00 0.00 0.00 56 1013.3
20260905181201 96 257 0.0 0.0 0.00 0.00 0.00 62 1013.5
20260905180656 96 238 0.0 0.0 0.00 0.00 0.00 57 1013.4
20260905180151 97 338 0.0 0.0 0.00 0.00 0.00 57 1013.5
20260905175650 98 284 0.0 0.0 0.00 0.00 0.00 54 1013.5
20260905175146 99 242 0.0 0.0 0.00 0.00 0.00 54 1013.5
20260905174642 99 287 0.0 0.0 0.00 0.00 0.00 51 1013.4
20260905174137 98 279 0.0 0.0 0.00 0.00 0.00 53 1013.5
20260905173633 98 231 0.0 0.0 0.00 0.00 0.00 55 1013.6
20260905173128 98 282 0.0 0.0 0.00 0.00 0.00 55 1013.6
20260905172627 96 354 0.0 0.0 0.00 0.00 0.00 54 1013.9
20260905172122 95 348 0.0 0.0 0.00 0.00 0.00 56 1013.9
20260905171618 96 238 0.0 0.0 0.00 0.00 0.00 56 1013.9
20260905171114 98 7 0.0 0.0 0.00 0.00 0.00 54 1013.9
20260905170611 98 281 0.0 0.0 0.00 0.00 0.00 57 1013.8
20260905170105 98 6 0.0 0.0 0.00 0.00 0.00 54 1014.0
20260905165559 97 252 0.0 0.0 0.00 0.00 0.00 57 1014.0
20260905165054 97 296 0.0 0.0 0.00 0.00 0.00 55 1014.1
20260905164549 97 339 0.0 0.0 0.00 0.00 0.00 57 1014.2
20260905164044 97 341 4.3 11.3 0.00 0.00 0.00 59 1014.2
20260905163540 96 251 0.0 0.0 0.00 0.00 0.00 61 1014.4
20260905163036 97 289 0.0 0.0 0.00 0.00 0.00 64 1014.2
20260905162532 96 232 0.0 0.0 0.00 0.00 0.00 58 1014.6
20260905162026 96 245 0.0 0.0 0.00 0.00 0.00 60 1014.3
20260905161521 97 352 0.0 0.0 0.00 0.00 0.00 59 1014.5
20260905161018 96 249 0.0 0.0 0.00 0.00 0.00 62 1014.6
20260905160512 98 270 0.0 0.0 0.00 0.00 0.00 61 1014.6
20260905160011 97 223 0.0 0.0 0.00 0.00 0.00 59 1014.5
20260905155506 97 235 0.0 0.0 0.00 0.00 0.00 57 1014.7
20260905155004 96 231 0.0 0.0 0.00 0.00 0.00 60 1014.6
20260905154500 97 227 0.0 0.0 0.00 0.00 0.00 58 1014.7
20260905153955 96 230 0.0 0.0 0.00 0.00 0.00 59 1014.6
20260905153451 96 224 0.0 0.0 0.00 0.00 0.00 63 1014.5
20260905152950 96 225 0.0 0.0 0.00 0.00 0.00 61 1014.6
20260905152445 95 243 0.0 0.0 0.00 0.00 0.00 62 1014.5
20260905151939 95 242 0.0 0.0 0.00 0.00 0.00 65 1014.5
20260905151435 95 226 0.0 0.0 0.00 0.00 0.00 62 1014.9
20260905150930 95 232 0.0 0.0 0.00 0.00 0.00 62 1014.7
20260905150430 95 229 0.0 0.0 0.00 0.00 0.00 62 1014.8
20260905145926 94 228 0.0 0.0 0.00 0.00 0.00 64 1014.6
20260905145421 94 229 0.0 0.0 0.00 0.00 0.00 64 1014.6
20260905144915 93 230 0.0 0.0 0.00 0.00 0.00 65 1014.6
20260905144411 93 275 0.0 0.0 0.00 0.00 0.00 66 1014.8
20260905143909 92 217 0.0 0.0 0.00 0.00 0.00 67 1014.6
20260905143403 90 230 0.0 0.0 0.00 0.00 0.00 72 1014.5
20260905142857 90 228 0.0 0.0 0.00 0.00 0.00 73 1014.6
20260905142355 89 234 0.0 0.0 0.00 0.00 0.00 72 1014.6
20260905141852 89 246 0.0 0.0 0.00 0.00 0.00 73 1014.6
20260905141347 89 264 0.0 0.0 0.00 0.00 0.00 75 1014.7
20260905140843 89 228 0.0 0.0 0.00 0.00 0.00 79 1014.8
20260905140343 89 224 0.0 0.0 0.00 0.00 0.00 77 1014.5
20260905135842 89 227 0.0 0.0 0.00 0.00 0.00 80 1014.5
20260905135338 87 226 0.0 0.0 0.00 0.00 0.00 83 1014.5
20260905134834 87 234 0.0 0.0 0.00 0.00 0.00 83 1014.5
20260905134332 86 233 0.0 0.0 0.00 0.00 0.00 86 1014.5
20260905133827 86 233 0.0 0.0 0.00 0.00 0.00 86 1014.4
20260905133323 85 226 0.0 0.0 0.00 0.00 0.00 87 1014.3
20260905132821 85 226 0.0 0.0 0.00 0.00 0.00 89 1014.4
20260905132317 84 226 0.0 0.0 0.00 0.00 0.00 91 1014.3
20260905131811 82 225 0.0 0.0 0.00 0.00 0.00 93 1014.5
20260905131307 82 228 0.0 0.0 0.00 0.00 0.00 95 1014.3
20260905130802 81 228 0.0 0.0 0.00 0.00 0.00 97 1014.4
20260905130300 80 228 0.0 0.0 0.00 0.00 0.00 99 1014.5
20260905125756 80 228 0.0 0.0 0.00 0.00 0.00 99 1014.5
20260905125251 79 227 0.0 0.0 0.00 0.00 0.00 99 1014.2
20260905124747 79 227 0.0 0.0 0.00 0.00 0.00 99 1014.2
20260905124243 78 227 0.0 0.0 0.00 0.00 0.00 99 1014.0
20260905123738 77 226 0.0 0.0 0.00 0.00 0.00 99 1014.3
20260905123235 77 224 0.0 0.0 0.00 0.00 0.00 99 1014.3